カタログに戻る

CZ-3B R/B

運用中HEO
NORAD 39158·ROCKET BODY·🇨🇳 China

打ち上げ May 1, 2013 から Xichang Satellite Launch Center

Loading…

次のパス (今後24時間)

TLE

最新Source: Space-Track

元期: Sep 11, 2026, 14:49 UTC

1 39158U 13020B   26254.61742994  .00121821  93989-6  16379-2 0  9990
2 39158  26.4894 358.3123 5937148 359.7728   0.0189  4.23899490130318

AllMySatでCZ-3B R/Bをリアルタイム追跡

Download on the App Store